Topeka, KS

12:13 PM CDT on May 27, 2018 (GMT -0500)
Billard Municipal

Weather History for KTOP - May, 2013

Change the Weather History Date:

Friday, May 31, 2013

  Actual Average Record
Temperature  
Mean Temperature 72 °F 70 °F  
Max Temperature 83 °F 80 °F 102 °F (1934)
Min Temperature 61 °F 59 °F 36 °F (1889)
Degree Days  
Heating Degree Days 0 1  
Month to date heating degree days 133 97  
Since 1 July heating degree days 4896 5013  
Cooling Degree Days 7 6  
Month to date cooling degree days 129 98  
Year to date cooling degree days 145 126  
Growing Degree Days 22 (Base 50)    
Moisture  
Dew Point 63 °F    
Average Humidity 65    
Maximum Humidity 87    
Minimum Humidity 43    
Precipitation  
Precipitation 1.09 in 0.16 in 3.62 in (1978)
Month to date precipitation 6.76 4.91  
Year to date precipitation 14.33 13.11  
Snow  
Snow T in 0.00 in T in (2013)
Month to date snowfall T 0.0  
Year to date snowfall 24.2 11.3  
Since 1 July snowfall 29.6 17.8  
Snow Depth 0.00 in    
Sea Level Pressure  
Sea Level Pressure 29.70 in    
Wind  
Wind Speed 6 mph (ESE)    
Max Wind Speed 28 mph    
Max Gust Speed 36 mph    
Visibility 9 miles    
Events Rain , Thunderstorm    
T = Trace of Precipitation, MM = Missing Value Source: NWS Daily Summary

Daily Weather History Graph

Daily Weather History Graph

Search for Another Location

Airport or City:

Astronomy

May. 31, 2013 Rise Set
Actual Time 5:58 AM CDT 8:42 PM CDT
Civil Twilight 5:27 AM CDT 9:13 PM CDT
Nautical Twilight 4:48 AM CDT 9:52 PM CDT
Astronomical Twilight 4:03 AM CDT 10:37 PM CDT
Moon 1:19 AM CDT (5/31) 1:12 PM CDT (5/31)
Length of Visible Light 15h 46m
Length of Day
14h 43m
Waning Gibbous, 51% of the Moon is Illuminated
May 31
Waning Gibbous
May 31
Last Quarter
Jun 8
New
Jun 16
First Quarter
Jun 23
Full

Hourly Weather History & Observations

Time (CDT) Temp. Heat Index Dew Point Humidity Pressure Visibility Wind Dir Wind Speed Gust Speed Precip Events Conditions
12:53 AM 68.0 °F - 64.0 °F 87% 29.72 in 10.0 mi South 3.5 mph - 0.00 in   Clear
1:53 AM 66.0 °F - 63.0 °F 90% 29.71 in 10.0 mi ESE 5.8 mph - N/A   Partly Cloudy
2:02 AM 66.0 °F - 63.0 °F 90% 29.71 in 10.0 mi ESE 5.8 mph - N/A   Partly Cloudy
2:45 AM 66.9 °F - 64.0 °F 90% 29.72 in 10.0 mi Calm Calm - N/A Thunderstorm Thunderstorm
2:53 AM 66.0 °F - 64.0 °F 93% 29.73 in 6.0 mi West 9.2 mph - 0.00 in Rain , Thunderstorm Light Thunderstorms and Rain
3:01 AM 66.0 °F - 64.0 °F 93% 29.74 in 1.8 mi NW 11.5 mph - 0.15 in Rain , Thunderstorm Heavy Thunderstorms and Rain
3:13 AM 66.0 °F - 64.0 °F 93% 29.75 in 3.0 mi SE 3.5 mph - 0.32 in Rain , Thunderstorm Light Thunderstorms and Rain
3:25 AM 64.0 °F - 61.0 °F 90% 29.77 in 1.8 mi NW 12.7 mph - 0.45 in Rain , Thunderstorm Heavy Thunderstorms and Rain
3:34 AM 64.0 °F - 55.0 °F 73% 29.68 in 1.0 mi SE 10.4 mph 20.7 mph 0.77 in Rain , Thunderstorm Light Thunderstorms and Rain
3:38 AM 62.1 °F - 55.9 °F 80% 29.68 in 2.5 mi SSE 9.2 mph - 0.77 in Rain , Thunderstorm Light Thunderstorms and Rain
3:45 AM 62.1 °F - 57.0 °F 84% 29.68 in 10.0 mi SE 12.7 mph - 0.77 in Thunderstorm Thunderstorm
3:53 AM 62.1 °F - 57.0 °F 84% 29.65 in 10.0 mi SSE 6.9 mph - 0.77 in Rain , Thunderstorm Light Rain
4:19 AM 62.1 °F - 59.0 °F 90% 29.65 in 10.0 mi SE 25.3 mph - 0.02 in Rain , Thunderstorm Light Thunderstorms and Rain
4:53 AM 66.9 °F - 62.1 °F 84% 29.62 in 6.0 mi SE 17.3 mph 26.5 mph 0.13 in Rain , Thunderstorm Thunderstorms and Rain
5:17 AM 66.0 °F - 61.0 °F 84% 29.64 in 10.0 mi SE 17.3 mph 21.9 mph 0.00 in   Overcast
5:25 AM 64.9 °F - 62.1 °F 90% 29.63 in 10.0 mi ESE 17.3 mph 25.3 mph 0.00 in Thunderstorm Overcast
5:34 AM 64.9 °F - 62.1 °F 90% 29.65 in 3.0 mi South 6.9 mph - 0.08 in Rain , Thunderstorm Heavy Thunderstorms and Rain
5:41 AM 64.9 °F - 62.1 °F 90% 29.64 in 2.5 mi SE 16.1 mph - 0.17 in Rain , Thunderstorm Light Thunderstorms and Rain
5:48 AM 64.4 °F - 62.6 °F 94% 29.64 in 10.0 mi SE 12.7 mph - 0.18 in Rain , Thunderstorm Light Thunderstorms and Rain
5:53 AM 64.9 °F - 62.1 °F 90% 29.62 in 10.0 mi ESE 8.1 mph - 0.18 in Rain , Thunderstorm Light Rain
6:06 AM 66.0 °F - 62.1 °F 87% 29.65 in 10.0 mi ESE 5.8 mph - 0.00 in   Overcast
6:53 AM 64.9 °F - 61.0 °F 87% 29.65 in 10.0 mi Variable 6.9 mph - 0.00 in   Mostly Cloudy
7:02 AM 66.0 °F - 61.0 °F 84% 29.67 in 10.0 mi East 5.8 mph - N/A   Overcast
7:53 AM 66.0 °F - 62.1 °F 87% 29.68 in 10.0 mi SE 8.1 mph - N/A   Overcast
8:27 AM 66.0 °F - 62.1 °F 87% 29.71 in 10.0 mi NNE 4.6 mph - N/A   Overcast
8:53 AM 66.0 °F - 62.1 °F 87% 29.69 in 10.0 mi ESE 6.9 mph - N/A   Overcast
9:30 AM 66.0 °F - 63.0 °F 90% 29.72 in 10.0 mi East 5.8 mph - N/A   Overcast
9:53 AM 66.0 °F - 63.0 °F 90% 29.71 in 10.0 mi East 5.8 mph - N/A   Overcast
10:53 AM 66.9 °F - 64.0 °F 90% 29.73 in 3.0 mi NE 6.9 mph - 0.01 in Rain Light Rain
11:08 AM 66.9 °F - 64.0 °F 90% 29.75 in 10.0 mi North 5.8 mph - 0.00 in   Overcast
11:15 AM 68.0 °F - 64.9 °F 90% 29.75 in 10.0 mi NNE 5.8 mph - 0.00 in   Overcast
11:25 AM 69.1 °F - 64.0 °F 84% 29.75 in 10.0 mi NE 5.8 mph - 0.00 in   Overcast
11:40 AM 69.1 °F - 64.0 °F 84% 29.76 in 10.0 mi ENE 4.6 mph - 0.00 in   Overcast
11:53 AM 70.0 °F - 64.0 °F 81% 29.73 in 10.0 mi NNE 4.6 mph - 0.00 in   Overcast
12:03 PM 70.0 °F - 64.9 °F 84% 29.75 in 10.0 mi NNE 6.9 mph - N/A   Overcast
12:31 PM 73.0 °F - 66.0 °F 79% 29.75 in 10.0 mi ENE 5.8 mph - N/A   Partly Cloudy
12:53 PM 73.9 °F - 66.0 °F 76% 29.74 in 10.0 mi East 4.6 mph - N/A   Partly Cloudy
1:53 PM 75.9 °F - 64.9 °F 69% 29.72 in 10.0 mi Calm Calm - N/A   Mostly Cloudy
2:07 PM 77.0 °F - 66.9 °F 71% 29.73 in 10.0 mi NE 5.8 mph - N/A   Partly Cloudy
2:53 PM 75.9 °F - 66.9 °F 74% 29.71 in 10.0 mi East 4.6 mph - N/A   Clear
3:53 PM 77.0 °F - 66.9 °F 71% 29.70 in 10.0 mi Calm Calm - N/A   Clear
4:53 PM 82.0 °F 84.1 °F 66.0 °F 58% 29.66 in 10.0 mi NW 5.8 mph - N/A   Clear
5:53 PM 81.0 °F 82.7 °F 64.9 °F 58% 29.68 in 10.0 mi West 6.9 mph - N/A   Clear
6:53 PM 82.9 °F 82.4 °F 57.0 °F 41% 29.66 in 10.0 mi Calm Calm - N/A   Clear
7:53 PM 78.1 °F - 68.0 °F 71% 29.68 in 10.0 mi SE 5.8 mph - N/A   Clear
8:53 PM 73.0 °F - 68.0 °F 84% 29.70 in 10.0 mi ESE 6.9 mph - N/A   Clear
9:53 PM 73.9 °F - 68.0 °F 82% 29.72 in 10.0 mi Calm Calm - N/A   Clear
10:53 PM 73.0 °F - 66.9 °F 81% 29.73 in 10.0 mi SSW 4.6 mph - N/A   Clear
11:53 PM 72.0 °F - 66.0 °F 81% 29.73 in 10.0 mi South 6.9 mph - N/A   Clear